STARLINK-35390, 65796

Orbit data source: Space-Track

STARLINK-35390, 65796 is a payload satellite owned by SpaceX/Seattle (US) in SSO that was launched on Fri, 26 Sep 2025 UTC via an FALCON 9 launch vehicle from the Air Force Western Test Range (AFWTR). Payload-class satellites include a variety of spacecraft equipped with specific instruments for various scientific and technological missions. These include communications satellites like Starlink; space stations such as the ISS; scientific satellites like the Hubble; Earth observation satellites from companies like Planet Labs, Umbra, and HawkEye 360; GPS; miniature CubeSats for education and research; and military/defense satellites.

Loading next visibility...
Identifier
65796, 2025-218F
Orbit
SSO
Country
Flag of USUS
Related business
Manufacturer
SpaceX/Seattle
Mission
Operational Commercial Communications
Bus & Motor
STARLINK V2MO, Unknown motor
Mass
575 kg wet, ~530 kg dry
Launch date (UTC)
2025-09-26 (1 month ago)
Launch vehicle
FALCON 9
Launch site
Air Force Western Test Range (AFWTR)
Object type
Payload
Rocket body
Debris
Shape & HBR
Box + 2 Pan, 17.7 m
Radar Cross Section
36.964 m²

Expand to show TLE details & history
Last TLE update: 2 days ago

TLE from 2 days ago
0 STARLINK-35390
1 65796U 25218F   25312.61579807  .00011308  00000-0  78631-3 0  9998
2 65796  97.6009 173.6427 0003189  79.7476 280.4110 15.05663912  6759
Epoch: 2025-11-08T14:46Z
TLE epoch observation values (Epoch: 2025-11-08T14:46:44.953Z)
Latitude
-0.00004°
Longitude
-96.08746°
Altitude
552.135 km
Speed
7.586 km/s
True Right ascension
11h 34m 34s
True Declination
0° 00' 00"
Sunlit
Object was in daylight at epoch
Visualization orbit readout
Latitude
Unknown
Longitude
Unknown
Altitude
Unknown
Speed
Unknown
Apparent Right ascension
Unknown
Apparent Declination
Unknown
Sunlit
N/A
Visualization observer readout
Local Sidereal Time
03:57:21
Azimuth
Unknown
Elevation
Unknown
Doppler factor
Unknown
Orbital elements
Apogee altitude
548.67 km
Perigee altitude
544.254 km
Semi-major axis
6,924.599 km
Eccentricity
0.00032
Inclination
97.6009°
RAAN
173.6427°
Arg. of periapsis
79.7476°
True anomaly
280.37506°
Mean anomaly
280.411°
Eccentric anomaly
280.39303°
Mean motion
3.76662 °/min
Orbital period
95.58 mins
BSTAR
0.00078631
Loading maneuver chart data...
Computing Atmospheric mass density...
Loading historical data...
Loading historical data...
Loading historical data...
Loading historical data...
Loading historical data...
Loading historical data...
Loading historical data...

Documentation

Showing up to 5 results
|